When you browse on this site, cookies collect data to enhance your experience and personalize the content and advertising you see.
Visit our Privacy Policy to learn more. By continuing to use the site, you agree to this use of cookies and data.
  • En España
  • Lista de países
  • Para 7 días
  • Temperatura del agua
  • El tiempo en el mapa
  • Informadores
  • user-avatar
    Iniciar sesión

    Tiempo cada hora Qui Nhon

    Hoy, 3 Junio, Miércoles

    Tiempo Temperatura Precipitaciones Viento Presión Humedad
    00:00 +28°C° 0.5 mm 3 mps 756 mmHg 90%
    01:00 +28°C° 0.5 mm 3 mps 755 mmHg 90%
    02:00 +27°C° 0 mm 3 mps 755 mmHg 90%
    03:00 +27°C° 0 mm 2 mps 754 mmHg 89%
    04:00 +27°C° 0 mm 2 mps 754 mmHg 89%
    05:00 +27°C° 0 mm 2 mps 754 mmHg 86%
    06:00 +28°C° 0 mm 2 mps 755 mmHg 83%
    07:00 +29°C° 0 mm 1 mps 755 mmHg 81%
    08:00 +31°C° 0 mm 2 mps 755 mmHg 70%
    09:00 +34°C° 0 mm 2 mps 755 mmHg 60%
    10:00 +37°C° 0 mm 3 mps 755 mmHg 50%
    11:00 +37°C° 0 mm 4 mps 754 mmHg 48%
    12:00 +39°C° 0 mm 5 mps 754 mmHg 47%
    13:00 +40°C° 0 mm 5 mps 753 mmHg 45%
    14:00 +39°C° 0 mm 6 mps 753 mmHg 49%
    15:00 +38°C° 0 mm 6 mps 752 mmHg 52%
    16:00 +36°C° 0 mm 6 mps 752 mmHg 56%
    17:00 +34°C° 0.1 mm 5 mps 752 mmHg 65%
    18:00 +32°C° 0.1 mm 5 mps 753 mmHg 75%
    19:00 +30°C° 0.1 mm 5 mps 753 mmHg 84%
    20:00 +29°C° 0.3 mm 5 mps 754 mmHg 86%
    21:00 +29°C° 0.3 mm 4 mps 754 mmHg 87%
    22:00 +29°C° 0.3 mm 4 mps 754 mmHg 88%
    23:00 +29°C° 0.5 mm 4 mps 754 mmHg 87%

    Mañana, 4 Junio, Jueves

    Tiempo Temperatura Precipitaciones Viento Presión Humedad
    00:00 +29°C° 0.5 mm 3 mps 754 mmHg 86%
    01:00 +28°C° 0.5 mm 3 mps 754 mmHg 85%
    02:00 +28°C° 0.1 mm 3 mps 754 mmHg 84%
    03:00 +28°C° 0.1 mm 3 mps 753 mmHg 84%
    04:00 +28°C° 0.1 mm 2 mps 753 mmHg 83%
    05:00 +29°C° 0 mm 2 mps 754 mmHg 79%
    06:00 +30°C° 0 mm 2 mps 754 mmHg 76%
    07:00 +31°C° 0 mm 2 mps 754 mmHg 72%
    08:00 +34°C° 0 mm 3 mps 754 mmHg 65%
    09:00 +35°C° 0 mm 3 mps 754 mmHg 58%
    10:00 +37°C° 0 mm 4 mps 754 mmHg 51%
    11:00 +38°C° 0 mm 4 mps 754 mmHg 50%
    12:00 +39°C° 0 mm 5 mps 753 mmHg 48%
    13:00 +40°C° 0 mm 6 mps 753 mmHg 47%
    14:00 +39°C° 0 mm 6 mps 752 mmHg 50%
    15:00 +39°C° 0 mm 6 mps 752 mmHg 53%
    16:00 +38°C° 0 mm 7 mps 751 mmHg 56%
    17:00 +35°C° 0.1 mm 6 mps 752 mmHg 62%
    18:00 +34°C° 0.1 mm 6 mps 752 mmHg 69%
    19:00 +32°C° 0.1 mm 6 mps 753 mmHg 76%
    20:00 +32°C° 0.2 mm 5 mps 753 mmHg 76%
    21:00 +30°C° 0.2 mm 4 mps 754 mmHg 77%
    22:00 +30°C° 0.2 mm 3 mps 754 mmHg 78%
    23:00 +30°C° 0 mm 3 mps 754 mmHg 78%

    Pasado mañana, 5 Junio, Viernes

    Tiempo Temperatura Precipitaciones Viento Presión Humedad
    00:00 +29°C° 0 mm 3 mps 754 mmHg 79%
    01:00 +29°C° 0 mm 2 mps 753 mmHg 79%
    02:00 +29°C° 0 mm 2 mps 753 mmHg 80%
    03:00 +29°C° 0 mm 2 mps 753 mmHg 81%
    04:00 +28°C° 0 mm 2 mps 753 mmHg 82%
    05:00 +29°C° 0 mm 3 mps 753 mmHg 78%
    06:00 +30°C° 0 mm 3 mps 753 mmHg 73%
    07:00 +31°C° 0 mm 3 mps 754 mmHg 69%
    08:00 +34°C° 0 mm 3 mps 754 mmHg 63%
    09:00 +35°C° 0 mm 3 mps 754 mmHg 58%
    10:00 +37°C° 0 mm 3 mps 754 mmHg 52%
    11:00 +38°C° 0 mm 4 mps 753 mmHg 49%
    12:00 +40°C° 0 mm 4 mps 753 mmHg 47%
    13:00 +40°C° 0 mm 5 mps 753 mmHg 45%
    14:00 +40°C° 0 mm 6 mps 752 mmHg 47%
    15:00 +39°C° 0 mm 6 mps 752 mmHg 49%
    16:00 +39°C° 0 mm 7 mps 751 mmHg 50%
    17:00 +36°C° 0 mm 6 mps 752 mmHg 57%
    18:00 +35°C° 0 mm 6 mps 752 mmHg 63%
    19:00 +33°C° 0 mm 5 mps 753 mmHg 69%
    20:00 +32°C° 0 mm 4 mps 753 mmHg 72%
    21:00 +30°C° 0 mm 4 mps 753 mmHg 74%
    22:00 +30°C° 0 mm 3 mps 754 mmHg 77%
    23:00 +29°C° 0 mm 3 mps 753 mmHg 78%

    6 Junio, Sábado

    Tiempo Temperatura Precipitaciones Viento Presión Humedad
    00:00 +29°C° 0 mm 3 mps 753 mmHg 79%
    01:00 +29°C° 0 mm 3 mps 753 mmHg 79%
    02:00 +28°C° 0 mm 3 mps 753 mmHg 80%
    03:00 +28°C° 0 mm 3 mps 752 mmHg 80%
    04:00 +28°C° 0 mm 3 mps 752 mmHg 81%
    05:00 +29°C° 0 mm 3 mps 753 mmHg 76%
    06:00 +30°C° 0 mm 2 mps 753 mmHg 72%
    07:00 +32°C° 0 mm 2 mps 753 mmHg 67%
    08:00 +34°C° 0 mm 3 mps 753 mmHg 61%
    09:00 +36°C° 0 mm 3 mps 753 mmHg 55%
    10:00 +38°C° 0 mm 3 mps 753 mmHg 49%
    11:00 +38°C° 0 mm 4 mps 753 mmHg 47%
    12:00 +40°C° 0 mm 5 mps 752 mmHg 46%
    13:00 +41°C° 0 mm 6 mps 752 mmHg 44%
    14:00 +40°C° 0 mm 6 mps 751 mmHg 47%
    15:00 +39°C° 0 mm 6 mps 751 mmHg 50%
    16:00 +38°C° 0 mm 7 mps 751 mmHg 53%
    17:00 +36°C° 0 mm 6 mps 751 mmHg 59%
    18:00 +34°C° 0 mm 5 mps 752 mmHg 64%
    19:00 +33°C° 0 mm 5 mps 752 mmHg 69%
    20:00 +32°C° 0 mm 4 mps 753 mmHg 71%
    21:00 +32°C° 0 mm 4 mps 753 mmHg 73%
    22:00 +30°C° 0 mm 3 mps 754 mmHg 75%
    23:00 +30°C° 0 mm 3 mps 753 mmHg 76%

    7 Junio, Domingo

    Tiempo Temperatura Precipitaciones Viento Presión Humedad
    00:00 +30°C° 0 mm 3 mps 753 mmHg 77%
    01:00 +29°C° 0 mm 2 mps 752 mmHg 78%
    02:00 +29°C° 0 mm 2 mps 752 mmHg 78%
    03:00 +29°C° 0 mm 2 mps 752 mmHg 78%
    04:00 +29°C° 0 mm 2 mps 752 mmHg 78%
    05:00 +30°C° 0 mm 2 mps 752 mmHg 75%
    06:00 +30°C° 0 mm 3 mps 753 mmHg 72%
    07:00 +31°C° 0 mm 3 mps 753 mmHg 68%
    08:00 +34°C° 0 mm 3 mps 753 mmHg 62%
    09:00 +35°C° 0 mm 3 mps 753 mmHg 56%
    10:00 +37°C° 0 mm 4 mps 753 mmHg 49%
    11:00 +38°C° 0 mm 3 mps 753 mmHg 47%
    12:00 +39°C° 0 mm 3 mps 752 mmHg 45%
    13:00 +40°C° 0 mm 3 mps 751 mmHg 43%
    14:00 +40°C° 0 mm 4 mps 751 mmHg 44%
    15:00 +40°C° 0 mm 5 mps 751 mmHg 46%
    16:00 +39°C° 0 mm 6 mps 750 mmHg 47%
    17:00 +36°C° 0 mm 6 mps 751 mmHg 56%
    18:00 +34°C° 0 mm 5 mps 751 mmHg 65%
    19:00 +32°C° 0 mm 5 mps 752 mmHg 73%
    20:00 +32°C° 0 mm 4 mps 752 mmHg 75%
    21:00 +30°C° 0 mm 4 mps 753 mmHg 78%
    22:00 +30°C° 0 mm 3 mps 753 mmHg 80%
    23:00 +29°C° 0 mm 3 mps 753 mmHg 80%

    8 Junio, Lunes

    Tiempo Temperatura Precipitaciones Viento Presión Humedad
    00:00 +29°C° 0 mm 2 mps 752 mmHg 81%
    01:00 +29°C° 0 mm 2 mps 752 mmHg 82%
    02:00 +29°C° 0 mm 2 mps 752 mmHg 83%
    03:00 +28°C° 0 mm 2 mps 752 mmHg 83%
    04:00 +28°C° 0 mm 2 mps 752 mmHg 84%
    05:00 +29°C° 0 mm 2 mps 752 mmHg 80%
    06:00 +30°C° 0 mm 2 mps 752 mmHg 75%
    07:00 +31°C° 0 mm 2 mps 753 mmHg 70%
    08:00 +34°C° 0 mm 2 mps 753 mmHg 64%
    09:00 +35°C° 0 mm 3 mps 753 mmHg 58%
    10:00 +37°C° 0 mm 3 mps 753 mmHg 51%
    11:00 +38°C° 0 mm 3 mps 752 mmHg 49%
    12:00 +40°C° 0 mm 4 mps 752 mmHg 47%
    13:00 +40°C° 0 mm 4 mps 751 mmHg 44%
    14:00 +40°C° 0 mm 5 mps 751 mmHg 47%
    15:00 +39°C° 0 mm 5 mps 751 mmHg 49%
    16:00 +39°C° 0 mm 6 mps 751 mmHg 52%
    17:00 +36°C° 0.2 mm 6 mps 751 mmHg 60%
    18:00 +34°C° 0.2 mm 5 mps 752 mmHg 67%
    19:00 +32°C° 0.2 mm 5 mps 752 mmHg 75%
    20:00 +30°C° 0.1 mm 4 mps 753 mmHg 76%
    21:00 +30°C° 0.1 mm 3 mps 753 mmHg 76%
    22:00 +30°C° 0.1 mm 2 mps 754 mmHg 77%
    23:00 +29°C° 0 mm 2 mps 753 mmHg 78%
    Mostrar más